Regional Weather Roundup
Issued by NWS

Home | Current Version | Previous Version | Graphics & Text | Print | Product List | Glossary On
Versions: 1 2 3 4 5 6 7 8 9 10 11 12 13 14 15 16 17 18 19 20 21 22 23 24 25 26 27 28 29 30 31 32 33 34 35 36 37 38 39 40 41 42 43 44 45 46 47 48 49 50
000
ASUS43 KIND 312359
RWRIN

WEATHER ROUNDUP FOR INDIANA
NATIONAL WEATHER SERVICE INDIANAPOLIS IN
700 PM EST SAT JAN 31 2015

NOTE: "FAIR" INDICATES FEW OR NO CLOUDS BELOW 12,000 FEET WITH NO
SIGNIFICANT WEATHER AND/OR OBSTRUCTIONS TO VISIBILITY.

* - STATION DOES NOT REPORT WEATHER SUCH AS PRECIPITATION OR FOG.

+ - STATION NOT QUALITY CONTROLLED BY THE NATIONAL WEATHER SERVICE.
    USE DATA WITH CAUTION...ESPECIALLY DEWPOINT AND RELATIVE
    HUMIDITY OBSERVATIONS.

INZ001>003-010>013-019-020-010100-
NORTHWEST INDIANA

CITY           SKY/WX    TMP DP  RH WIND       PRES   REMARKS
GARY /AIRPORT/ CLOUDY    37  27  65 SW8       30.19R
VALPARAISO     NOT AVBL

$$

LMZ046-743>745-010100-
SOUTHERN LAKE MICHIGAN

STATION/POSITION TIME  TEMP WIND        PRES
                       AIR  DIR/SP/G
                 (UTC) (F)  (DEG/KT/KT) (MB)
MICHIGAN CITY    2300   34  250/  3/  4   N/A

$$

INZ004-005-014>016-021>024-010100-
NORTH CENTRAL INDIANA

CITY           SKY/WX    TMP DP  RH WIND       PRES   REMARKS
GOSHEN         CLOUDY    34  28  79 SW7       30.18S WCI  28
6HR MIN TEMP:  33; 6HR MAX TEMP:  37;

SOUTH BEND     CLOUDY    35  26  69 SW3       30.18S
6HR MIN TEMP:  34; 6HR MAX TEMP:  38;


$$

INZ006>009-017-018-025>027-010100-
NORTHEAST INDIANA

CITY           SKY/WX    TMP DP  RH WIND       PRES   REMARKS
ANGOLA *+      CLOUDY    34  25  69 SW5       30.17R WCI  30
FORT WAYNE     CLOUDY    34  27  75 SW7       30.21R WCI  28
6HR MIN TEMP:  34; 6HR MAX TEMP:  36;


$$

INZ028-029-035-036-043>045-051>053-010100-
WEST CENTRAL INDIANA

CITY           SKY/WX    TMP DP  RH WIND       PRES   REMARKS
GREENCASTLE +  LGT SNOW  34  27  75 S5        30.25R WCI  30
LAFAYETTE      CLOUDY    36  27  69 SW8       30.23R
6HR MIN TEMP:  35; 6HR MAX TEMP:  37;

TERRE HAUTE    LGTSLEET  35  29  78 S5        30.27R WCI  31
6HR MIN TEMP:  35; 6HR MAX TEMP:  40; 6HR PCP: TRACE;


$$

INZ030>032-037>040-046>048-054>057-064-065-010100-
CENTRAL INDIANA

CITY           SKY/WX    TMP DP  RH WIND       PRES   REMARKS
INDIANAPOLIS   LGT SNOW  32  27  81 SW9       30.25R WCI  24
6HR MIN TEMP:  32; 6HR MAX TEMP:  36; 6HR PCP: TRACE;

-EAGLE CREEK   CLOUDY    36  25  64 SW9       30.24R
6HR MIN TEMP:  35; 6HR MAX TEMP:  38;

KOKOMO *+      CLOUDY    36  27  69 SW9       30.22S
6HR MIN TEMP:  36; 6HR MAX TEMP:  37;

MT COMFORT *+  CLOUDY    36  18  48 SW6       30.24S
SHELBYVILLE    CLOUDY    37  25  61 S7        30.25R
6HR MIN TEMP:  36; 6HR MAX TEMP:  39;


$$

INZ033-034-041-042-049-050-058-059-010100-
EAST CENTRAL INDIANA

CITY           SKY/WX    TMP DP  RH WIND       PRES   REMARKS
MUNCIE         CLOUDY    35  24  64 SW9       30.22R WCI  28
6HR MIN TEMP:  35; 6HR MAX TEMP:  37;


$$

INZ060-061-067>069-081>083-085>088-010100-
SOUTHWEST INDIANA

CITY           SKY/WX    TMP DP  RH WIND       PRES   REMARKS
EVANSVILLE     CLOUDY    41  25  53 S5        30.29R
6HR MIN TEMP:  40; 6HR MAX TEMP:  43;

HUNTINGBURG *+ CLOUDY    37  25  60 SW9       30.29R
6HR MIN TEMP:  37; 6HR MAX TEMP:  41;


$$

INZ062-063-066-070>080-084-089>092-010100-
SOUTH CENTRAL AND SOUTHEAST INDIANA

CITY           SKY/WX    TMP DP  RH WIND       PRES   REMARKS
BLOOMINGTON    MIX PCPN  36  24  62 S5        30.25R
6HR MIN TEMP:  36; 6HR MAX TEMP:  40; 6HR PCP: TRACE;

SEYMOUR +      CLOUDY    37  25  60 CALM      30.28R

$$




USA.gov is the U.S. government's official web portal to all federal, state and local government web resources and services.